AirNav   Everest Fuels
 
 1518 users online  

2VA3 Merlin Aerodrome
Amelia Court House, Virginia, USA

GOING TO AMELIA COURT HOUSE?


FAA INFORMATION EFFECTIVE 06 OCTOBER 2022

Location

FAA Identifier: 2VA3
Lat/Long: 37-19-00.5800N 077-51-59.5800W
37-19.009667N 077-51.993000W
37.3168278,-77.8665500
(estimated)
Elevation: 270 ft. / 82 m (estimated)
Variation: 09W (1995)
From city: 5 miles E of AMELIA COURT HOUSE, VA
Time zone: UTC -4 (UTC -5 during Standard Time)
Zip code: 23002

Airport Operations

Airport use: Private use. Permission required prior to landing
Activation date: 07/1999
Control tower: no
ARTCC: WASHINGTON CENTER
FSS: LEESBURG FLIGHT SERVICE STATION
Attendance: DAYLIGHT HOURS
Wind indicator: yes
Segmented circle: no

Airport Communications

WX AWOS-3 at W81 (14 nm SW): 119.050
WX AWOS-3 at BKT (15 nm S): 119.225 (434-292-1400)
WX AWOS-3PT at FCI (17 nm E): 128.625 (804-271-8426)
WX AWOS-3 at PTB (19 nm SE): 133.325 (804-861-5551)
  • GLIDER OPS - 123.30.

Nearby radio navigation aids

VOR radial/distance  VOR name  Freq  Var
FAKr194/12.8FLAT ROCK VORTAC113.3006W
RICr256/28.3RICHMOND VORTAC114.1009W
LVLr011/30.0LAWRENCEVILLE VORTAC112.9008W
HPWr275/35.8HOPEWELL VORTAC112.0006W

 
NDB name  Hdg/Dist  Freq  Var  ID
BLACKSTONE046/14.232609WBKT -... -.- -

Airport Services

Runway Information

Runway 14/32

Dimensions: 3200 x 100 ft. / 975 x 30 m
Surface: turf, in good condition
Runway edge markings: RWY 14/32 THR MKD WITH CONES.
RUNWAY 14  RUNWAY 32
Latitude: 37-19.202167N37-18.817167N
Longitude: 077-52.218833W077-51.767167W
Elevation: 270.0 ft.250.0 ft.
Traffic pattern: leftleft
Runway heading: 146 magnetic, 137 true326 magnetic, 317 true

Airport Ownership and Management from official FAA records

Ownership: Privately-owned
Owner: MERLIN AIRPORT LLC
2607 ST REGIS DRIVE
N CHESTERFIELD, VA 23236
Phone (804) 745-4250
Manager: ERIC J. LAMBERT
2607 ST REGIS DRIVE
N CHESTERFIELD, VA 23236
Phone (804) 745-4250

Airport Operational Statistics

Aircraft based on the field: 25
Single engine airplanes: 5
Gliders airplanes: 15
Ultralights: 5
    

Additional Remarks

FOR CD CTC POTOMAC APCH AT 866-640-4124.
RWY SIDE MARKINGS AND DSPLCD THR MARKINGS ARE WHITE MATS.

Instrument Procedures

There are no published instrument procedures at 2VA3.

Some nearby airports with instrument procedures:

W81 - Crewe Municipal Airport (14 nm SW)
KBKT - Allen C Perkinson Airport/Blackstone Army Airfield (15 nm S)
KFCI - Richmond Executive-Chesterfield County Airport (17 nm E)
KPTB - Dinwiddie County Airport (19 nm SE)
W31 - Lunenburg County Airport (26 nm SW)
 
Loc | Ops | Rwys | IFR | FBO | Links
Com | Nav | Svcs | Stats | Notes
Area around 2VA3 (Merlin Aerodrome)
 
Road maps at: MapQuest Bing Google
 
Aerial photo
WARNING: Photo may not be current or correct
Aerial photo of 2VA3 (Merlin Aerodrome)
Photo by AirNav, LLC
Photo taken 18-Oct-2010
from the northwest.

Do you have a better or more recent aerial photo of Merlin Aerodrome that you would like to share? If so, please send us your photo.

 
Sectional chart

 
Airport distance calculator
Flying to Merlin Aerodrome? Find the distance to fly.

From to 2VA3

Sunrise and sunset
Times for 07-Oct-2022
 Local
(UTC-4)
 Zulu
(UTC)
Morning civil twilight06:4710:47
Sunrise07:1311:13
Sunset18:4622:46
Evening civil twilight19:1223:12

Current date and time
Zulu (UTC)  07-Oct-2022 20:29:22
Local (UTC-4)  07-Oct-2022 16:29:22
 
METAR
KW81 
14nm SW 
072015Z AUTO 26004KT 10SM CLR 26/04 A3001 RMK AO1 T02550043
KBKT 
15nm S 
072015Z AUTO 26007KT 10SM CLR 27/07 A3002 RMK AO1 T02650070
KFCI 
17nm E 
071956Z AUTO 23007KT 10SM CLR 27/10 A3000 RMK AO2 SLP169 T02720100
KPTB 
19nm SE 
072015Z AUTO 23008KT 10SM CLR 27/06 A3001 RMK AO2 T02690064
KW31 
26nm SW 
072015Z AUTO 24005KT 10SM CLR 25/09 A3002 RMK AO1 T02540087
KFVX 
26nm W 
072015Z AUTO 21004KT 10SM CLR 27/09 A3000 RMK AO2 T02660088
TAF
KRIC 
29nm NE 
071722Z 0718/0818 25006KT P6SM SKC FM080400 35009KT P6SM BKN080 FM081500 35009KT P6SM SCT100
NOTAMs
Click for the latest NOTAMs
NOTAMs are issued by the DoD/FAA and will open in a separate window not controlled by AirNav.

 

 
 

Would you like to see your business listed on this page?

 If your business provides an interesting product or service to pilots, flight crews, aircraft, or users of the Merlin Aerodrome, you should consider listing it here.  To start the listing process, click on the button below
 
Add a business
 

Other Pages about Merlin Aerodrome

www.merlinaero.org
 
Update a link
 
Copyright © AirNav, LLC. All rights reserved. Privacy Policy  Contact